FW7092 Weather Reports


Display with metric or nautical units.
time (UTC)temp
F
wind
direction
speed
MPH
gust
MPH
rain 1hr
in
rain 24hr
in
rain mn
in
humidity
%
barometer
mb
20260509150855 60 236 9.0 14.0 0.00 0.00 0.00 82 1008.7
20260509150353 59 222 8.0 11.0 0.00 0.00 0.00 83 1008.5
20260509145850 59 212 15.0 17.0 0.00 0.00 0.00 82 1008.5
20260509145344 59 227 9.0 15.0 0.00 0.00 0.00 84 1008.5
20260509144841 59 214 13.0 16.0 0.00 0.00 0.00 83 1008.5
20260509144338 59 204 9.0 14.0 0.00 0.00 0.00 83 1008.7
20260509143835 59 255 11.0 13.0 0.00 0.00 0.00 82 1008.8
20260509143333 59 249 11.0 15.0 0.00 0.00 0.00 83 1009.1
20260509142829 58 238 10.0 13.0 0.00 0.00 0.00 84 1008.9
20260509142325 58 239 7.0 11.0 0.00 0.00 0.00 85 1009.0
20260509141821 58 212 9.0 14.0 0.00 0.00 0.00 84 1008.9
20260509141318 57 234 15.0 17.0 0.00 0.00 0.00 84 1009.0
20260509140814 57 227 8.0 14.0 0.00 0.00 0.00 85 1008.9
20260509140311 57 235 8.0 10.0 0.00 0.00 0.00 88 1008.9
20260509135809 57 232 10.0 13.0 0.00 0.00 0.00 87 1009.0
20260509135306 57 238 11.0 16.0 0.00 0.00 0.00 87 1009.1
20260509134804 57 236 9.0 13.0 0.00 0.00 0.00 89 1009.2
20260509134301 56 239 9.0 11.0 0.00 0.00 0.00 90 1009.1
20260509133758 55 236 11.0 14.0 0.00 0.00 0.00 91 1009.1
20260509133254 55 233 10.0 13.0 0.00 0.00 0.00 92 1009.1
20260509132753 55 240 9.0 11.0 0.00 0.00 0.00 93 1009.1
20260509132252 55 224 8.0 9.0 0.00 0.00 0.00 95 1008.9
20260509131748 54 221 8.0 9.0 0.00 0.00 0.00 95 1008.8
20260509131244 54 207 8.0 10.0 0.00 0.00 0.00 95 1009.0
20260509130741 54 235 7.0 8.0 0.00 0.00 0.00 95 1009.2
20260509130236 54 241 9.0 15.0 0.00 0.00 0.00 96 1008.9
20260509125733 54 252 9.0 10.0 0.00 0.00 0.00 96 1009.1
20260509125230 53 241 7.0 13.0 0.00 0.00 0.00 96 1009.2
20260509124726 53 237 10.0 11.0 0.00 0.00 0.00 97 1009.0
20260509124223 54 254 11.0 13.0 0.00 0.00 0.00 97 1009.0
20260509123722 54 239 8.0 10.0 0.00 0.00 0.00 98 1009.0
20260509123218 54 231 7.0 9.0 0.00 0.00 0.00 98 1009.0
20260509122714 54 240 7.0 10.0 0.00 0.00 0.00 98 1008.7
20260509122211 54 221 7.0 8.0 0.00 0.00 0.00 99 1009.0
20260509121707 53 216 9.0 10.0 0.00 0.00 0.00 99 1009.1
20260509121205 53 215 6.0 8.0 0.00 0.00 0.00 99 1009.0
20260509120703 53 230 6.0 8.0 0.00 0.00 0.00 99 1009.2
20260509120201 53 216 7.0 8.0 0.00 0.00 0.00 99 1009.3
20260509115658 52 210 5.0 8.0 0.00 0.00 0.00 99 1009.3
20260509115155 52 229 5.0 6.0 0.00 0.00 0.00 99 1009.2
20260509114654 51 216 4.0 6.0 0.00 0.00 0.00 99 1009.1
20260509114153 51 210 4.0 5.0 0.00 0.00 0.00 99 1009.0
20260509113650 50 216 2.0 3.0 0.00 0.00 0.00 99 1009.2
20260509113147 49 212 2.0 2.0 0.00 0.00 0.00 99 1008.9
20260509112644 50 215 2.0 3.0 0.00 0.00 0.00 99 1009.0
20260509112141 50 215 2.0 2.0 0.00 0.00 0.00 99 1009.0
20260509111638 50 208 2.0 3.0 0.00 0.00 0.00 99 1009.0
20260509111135 50 214 3.0 3.0 0.00 0.00 0.00 99 1009.0
20260509110632 50 212 3.0 3.0 0.00 0.00 0.00 99 1008.9
20260509110129 50 216 4.0 6.0 0.00 0.00 0.00 99 1009.0
20260509105627 50 214 4.0 5.0 0.00 0.00 0.00 99 1009.1
20260509105124 50 222 4.0 5.0 0.00 0.00 0.00 99 1009.0
20260509104621 49 232 3.0 5.0 0.00 0.00 0.00 99 1008.9
20260509104118 49 233 2.0 2.0 0.00 0.00 0.00 99 1008.8
20260509103616 50 228 3.0 3.0 0.00 0.00 0.00 99 1008.9
20260509103114 50 222 3.0 3.0 0.00 0.00 0.00 99 1008.9
20260509102611 50 222 2.0 2.0 0.00 0.00 0.00 99 1008.8
20260509102108 50 237 2.0 2.0 0.00 0.00 0.00 99 1008.8
20260509101604 49 225 1.0 2.0 0.00 0.00 0.00 99 1008.7
20260509101101 50 216 2.0 2.0 0.00 0.00 0.00 99 1008.8
20260509100558 50 218 3.0 3.0 0.00 0.00 0.00 99 1008.5
20260509100055 50 221 2.0 2.0 0.00 0.00 0.00 99 1008.5
20260509095551 50 215 3.0 3.0 0.00 0.00 0.00 99 1008.7
20260509095049 50 215 3.0 3.0 0.00 0.00 0.00 99 1008.8
20260509094545 50 227 1.0 2.0 0.00 0.00 0.00 99 1008.8
20260509094043 50 224 1.0 2.0 0.00 0.00 0.00 99 1008.8
20260509093541 50 215 2.0 2.0 0.00 0.00 0.00 99 1008.7
20260509093038 50 216 3.0 3.0 0.00 0.00 0.00 99 1008.9
20260509092536 50 215 3.0 3.0 0.00 0.00 0.00 99 1008.9
20260509092035 50 214 3.0 3.0 0.00 0.00 0.00 99 1009.0
20260509091531 51 217 3.0 3.0 0.00 0.00 0.00 99 1008.8
20260509091028 51 223 2.0 2.0 0.00 0.00 0.00 99 1008.8
20260509090525 51 227 3.0 3.0 0.00 0.00 0.00 99 1009.0
20260509090023 51 220 4.0 6.0 0.00 0.00 0.00 99 1009.1
20260509085520 51 212 3.0 3.0 0.00 0.00 0.00 99 1009.2
20260509085016 50 200 3.0 5.0 0.00 0.00 0.00 99 1009.0
20260509084513 51 216 4.0 6.0 0.00 0.00 0.00 99 1009.1
20260509084010 50 214 3.0 3.0 0.00 0.00 0.00 99 1009.2
20260509083508 50 219 3.0 5.0 0.00 0.00 0.00 99 1009.4
20260509083004 50 218 3.0 3.0 0.00 0.00 0.00 99 1009.2
20260509082502 50 217 2.0 3.0 0.00 0.00 0.00 99 1009.3
20260509081958 50 220 3.0 3.0 0.00 0.00 0.00 99 1009.4
20260509081455 50 219 2.0 2.0 0.00 0.00 0.00 99 1009.6
20260509080952 50 218 2.0 3.0 0.00 0.00 0.00 99 1009.5
20260509080451 50 213 2.0 2.0 0.00 0.00 0.00 99 1009.5
20260509075948 50 218 2.0 2.0 0.00 0.00 0.00 99 1009.6
20260509075445 50 216 2.0 2.0 0.00 0.00 0.00 99 1009.4
20260509074943 50 216 2.0 2.0 0.00 0.00 0.00 99 1009.5
20260509074440 50 212 2.0 3.0 0.00 0.00 0.00 99 1009.6
20260509073936 50 216 2.0 2.0 0.00 0.00 0.00 99 1009.8
20260509073433 50 227 2.0 2.0 0.00 0.00 0.00 99 1009.8
20260509072929 50 216 1.0 2.0 0.00 0.00 0.00 99 1010.0
20260509072426 50 216 3.0 3.0 0.00 0.00 0.00 99 1009.7
20260509071923 50 222 2.0 2.0 0.00 0.00 0.00 99 1009.8
20260509071420 50 214 2.0 2.0 0.00 0.00 0.00 99 1009.8
20260509070918 50 213 2.0 3.0 0.00 0.00 0.00 99 1009.8
20260509070414 50 224 1.0 1.0 0.00 0.00 0.00 99 1009.8
20260509065909 50 227 2.0 2.0 0.00 0.00 0.00 99 1009.8
20260509065406 50 231 2.0 3.0 0.00 0.00 0.00 99 1009.7
20260509064902 50 217 3.0 3.0 0.00 0.00 0.00 98 1010.0
20260509064400 50 211 3.0 3.0 0.00 0.00 0.00 98 1009.8
20260509063857 50 215 3.0 3.0 0.00 0.00 0.00 98 1010.0
20260509063353 50 212 2.0 2.0 0.00 0.00 0.00 98 1010.0
20260509062850 50 210 2.0 2.0 0.00 0.00 0.00 98 1009.7
20260509062347 50 217 3.0 3.0 0.00 0.00 0.00 98 1010.0
20260509061844 50 214 2.0 2.0 0.00 0.00 0.00 98 1010.1
20260509061343 50 216 2.0 2.0 0.00 0.00 0.00 98 1010.1
20260509060839 50 212 2.0 2.0 0.00 0.00 0.00 98 1010.3
20260509060337 50 211 2.0 2.0 0.00 0.00 0.00 98 1010.3
20260509055831 50 215 2.0 2.0 0.00 0.00 0.00 98 1010.3
20260509055327 50 212 2.0 2.0 0.00 0.00 0.00 98 1010.4
20260509054825 51 212 2.0 3.0 0.00 0.00 0.00 98 1010.5
20260509054321 51 210 2.0 2.0 0.00 0.00 0.00 98 1010.4
20260509053820 51 210 2.0 2.0 0.00 0.00 0.00 97 1010.6
20260509053316 51 211 2.0 2.0 0.00 0.00 0.00 97 1010.6
20260509052814 51 215 2.0 3.0 0.00 0.00 0.00 97 1010.7
20260509052312 52 209 3.0 5.0 0.00 0.00 0.00 97 1010.7
20260509051809 52 214 3.0 5.0 0.00 0.00 0.00 97 1010.8
20260509051307 51 223 3.0 3.0 0.00 0.00 0.00 97 1011.0
20260509050804 51 216 3.0 3.0 0.00 0.00 0.00 97 1011.1
20260509050300 51 209 3.0 3.0 0.00 0.00 0.00 97 1010.8
20260509045757 51 213 2.0 3.0 0.00 0.00 0.00 97 1010.8
20260509045254 51 219 3.0 3.0 0.00 0.00 0.00 97 1010.8
20260509044752 51 210 2.0 2.0 0.00 0.00 0.00 96 1010.7
20260509044249 51 213 3.0 3.0 0.00 0.00 0.00 96 1010.7
20260509043745 52 213 3.0 5.0 0.00 0.00 0.00 96 1010.8
20260509043241 52 209 4.0 5.0 0.00 0.00 0.00 96 1010.7
20260509042737 52 212 4.0 6.0 0.00 0.00 0.00 96 1010.8
20260509042234 52 222 3.0 6.0 0.00 0.00 0.00 96 1010.6
20260509041731 52 218 5.0 6.0 0.00 0.00 0.00 96 1010.9
20260509041228 53 209 3.0 6.0 0.00 0.00 0.00 96 1010.9
20260509040726 53 209 3.0 5.0 0.00 0.00 0.00 96 1011.1
20260509040223 53 210 4.0 6.0 0.00 0.00 0.00 96 1011.0
20260509035719 53 214 4.0 5.0 0.00 0.00 0.00 96 1011.0
20260509035216 53 215 3.0 5.0 0.00 0.00 0.00 95 1010.9
20260509034713 53 212 3.0 3.0 0.00 0.00 0.00 95 1011.0
20260509034211 53 214 3.0 3.0 0.00 0.00 0.00 95 1011.2
20260509033708 53 210 4.0 5.0 0.00 0.00 0.00 94 1011.2
20260509033205 53 213 4.0 6.0 0.00 0.00 0.00 94 1011.0
20260509032702 53 220 3.0 3.0 0.00 0.00 0.00 94 1011.2
20260509032159 53 218 3.0 5.0 0.00 0.00 0.00 94 1011.3
20260509031656 53 205 4.0 5.0 0.00 0.00 0.00 94 1011.4
20260509031154 53 213 6.0 7.0 0.00 0.00 0.00 93 1011.5
20260509030652 53 203 6.0 7.0 0.00 0.00 0.00 94 1011.5
20260509030149 53 217 5.0 6.0 0.00 0.00 0.00 94 1011.4
20260509025645 53 207 5.0 6.0 0.00 0.00 0.00 94 1011.5
20260509025141 53 215 4.0 5.0 0.00 0.00 0.00 94 1011.5
20260509024636 53 208 3.0 6.0 0.00 0.00 0.00 94 1011.6
20260509024132 53 220 5.0 7.0 0.00 0.00 0.00 94 1011.5
20260509023631 53 230 4.0 6.0 0.00 0.00 0.00 94 1011.6
20260509023127 53 228 5.0 6.0 0.00 0.00 0.00 94 1011.6
20260509022623 53 218 4.0 6.0 0.00 0.00 0.00 94 1011.6
20260509022122 53 215 4.0 6.0 0.00 0.00 0.00 94 1011.8
20260509021618 53 219 4.0 5.0 0.00 0.00 0.00 94 1011.4
20260509021115 53 216 4.0 6.0 0.00 0.00 0.00 94 1011.5
20260509020614 53 213 4.0 5.0 0.00 0.00 0.00 94 1011.3
20260509020110 53 211 5.0 6.0 0.00 0.00 0.00 94 1011.3
20260509015609 53 210 4.0 5.0 0.00 0.00 0.00 94 1011.5
20260509015106 53 220 3.0 5.0 0.00 0.00 0.00 93 1011.5
20260509014602 53 217 3.0 5.0 0.00 0.00 0.00 93 1011.4
20260509014059 53 217 4.0 6.0 0.00 0.00 0.00 93 1011.4
20260509013556 53 219 4.0 5.0 0.00 0.00 0.00 93 1011.3
20260509013051 53 222 4.0 6.0 0.00 0.00 0.00 92 1011.2
20260509012548 53 221 4.0 5.0 0.00 0.00 0.00 92 1011.2
20260509012045 53 218 5.0 6.0 0.00 0.00 0.00 92 1011.3
20260509011543 53 229 4.0 6.0 0.00 0.00 0.00 91 1011.1
20260509011040 53 215 5.0 7.0 0.00 0.00 0.00 92 1011.3
20260509010538 53 208 5.0 7.0 0.00 0.00 0.00 91 1011.0
20260509010034 54 216 5.0 7.0 0.00 0.00 0.00 90 1011.3
20260509005532 54 204 3.0 5.0 0.00 0.00 0.00 91 1011.3
20260509005027 54 225 4.0 6.0 0.00 0.00 0.00 90 1011.2
20260509004524 54 215 5.0 7.0 0.00 0.00 0.00 90 1011.1
20260509004021 54 207 5.0 10.0 0.00 0.00 0.00 90 1011.0
20260509003519 55 224 7.0 9.0 0.00 0.00 0.00 90 1011.3
20260509003016 55 212 7.0 8.0 0.00 0.00 0.00 90 1011.2
20260509002513 55 254 9.0 11.0 0.00 0.00 0.00 89 1011.3
20260509002011 55 223 7.0 9.0 0.00 0.00 0.00 89 1011.1
20260509001508 55 199 7.0 14.0 0.00 0.00 0.00 89 1011.2
20260509001004 55 210 9.0 16.0 0.00 0.00 0.00 87 1011.1
20260509000503 56 224 10.0 13.0 0.00 0.00 0.00 87 1011.3
20260508235957 56 201 12.0 14.0 0.00 0.00 0.00 88 1011.1
20260508235456 56 213 11.0 13.0 0.00 0.00 0.00 87 1010.9
20260508234952 56 200 9.0 11.0 0.00 0.00 0.00 87 1011.0
20260508234449 56 248 9.0 15.0 0.00 0.00 0.00 88 1011.0
20260508233947 56 215 7.0 8.0 0.00 0.00 0.00 88 1011.0
20260508233446 56 202 7.0 11.0 0.00 0.00 0.00 87 1010.9
20260508232942 57 238 8.0 11.0 0.00 0.00 0.00 87 1011.0
20260508232439 56 230 9.0 9.0 0.00 0.00 0.00 86 1011.1
20260508231936 56 214 5.0 8.0 0.00 0.00 0.00 86 1011.1
20260508231434 56 209 4.0 8.0 0.00 0.00 0.00 85 1011.2
20260508230931 55 216 5.0 7.0 0.00 0.00 0.00 85 1011.3
20260508230427 55 212 4.0 6.0 0.00 0.00 0.00 86 1011.3
20260508225924 55 201 4.0 7.0 0.00 0.00 0.00 85 1011.5
20260508225421 55 208 3.0 6.0 0.00 0.00 0.00 86 1011.4
20260508224918 55 198 5.0 7.0 0.00 0.00 0.00 86 1011.6
20260508224416 55 213 6.0 8.0 0.00 0.00 0.00 86 1011.6
20260508223913 55 211 5.0 6.0 0.00 0.00 0.00 87 1011.5
20260508223411 55 209 5.0 9.0 0.00 0.00 0.00 86 1011.4
20260508222908 55 200 5.0 7.0 0.00 0.00 0.00 87 1011.5
20260508222405 55 207 5.0 9.0 0.00 0.00 0.00 85 1011.4
20260508221902 55 209 8.0 10.0 0.00 0.00 0.00 85 1011.2
20260508221357 55 228 7.0 9.0 0.00 0.00 0.00 85 1011.4
20260508220854 55 208 8.0 8.0 0.00 0.00 0.00 85 1011.2
20260508220350 55 215 6.0 8.0 0.00 0.00 0.00 84 1011.3
20260508215847 55 220 7.0 8.0 0.00 0.00 0.00 85 1011.3
20260508215344 55 226 5.0 6.0 0.00 0.00 0.00 85 1011.4
20260508214840 55 219 5.0 6.0 0.00 0.00 0.00 86 1011.4
20260508214338 55 226 5.0 6.0 0.00 0.00 0.00 86 1011.3
20260508213834 55 199 5.0 7.0 0.00 0.00 0.00 86 1011.3
20260508213332 55 213 4.0 7.0 0.00 0.00 0.00 86 1011.5
20260508212827 55 230 4.0 9.0 0.00 0.00 0.00 85 1011.3
20260508212323 55 204 3.0 6.0 0.00 0.00 0.00 85 1011.5
20260508211819 55 234 6.0 7.0 0.00 0.00 0.00 86 1011.5
20260508211315 54 227 4.0 6.0 0.00 0.00 0.00 86 1011.5
20260508210813 54 207 5.0 6.0 0.00 0.00 0.00 87 1011.6
20260508210309 54 215 3.0 5.0 0.00 0.00 0.00 86 1011.6
20260508205806 54 233 2.0 3.0 0.00 0.00 0.00 88 1011.8
20260508205306 54 232 2.0 7.0 0.00 0.00 0.00 87 1011.5
20260508204759 54 241 4.0 5.0 0.00 0.00 0.00 87 1011.9
20260508204256 54 228 5.0 6.0 0.00 0.00 0.00 88 1011.9
20260508203752 54 230 6.0 8.0 0.00 0.00 0.00 87 1012.0
20260508203248 54 233 5.0 8.0 0.00 0.00 0.00 87 1012.0
20260508202744 54 216 5.0 6.0 0.00 0.00 0.00 87 1012.1
20260508202242 54 240 5.0 7.0 0.00 0.00 0.00 86 1011.9
20260508201739 54 215 5.0 7.0 0.00 0.00 0.00 88 1011.9
20260508201235 54 234 5.0 7.0 0.00 0.00 0.00 88 1012.1
20260508200732 55 239 6.0 8.0 0.00 0.00 0.00 87 1012.5
20260508200228 55 250 6.0 8.0 0.00 0.00 0.00 86 1012.4
20260508195725 55 231 5.0 10.0 0.00 0.00 0.00 86 1012.6
20260508195221 55 213 9.0 11.0 0.00 0.00 0.00 86 1012.4
20260508194718 55 213 9.0 10.0 0.00 0.00 0.00 86 1012.7
20260508194215 55 223 9.0 14.0 0.00 0.00 0.00 86 1012.9
20260508193712 56 209 10.0 15.0 0.00 0.00 0.00 85 1012.9
20260508193208 57 216 11.0 14.0 0.00 0.00 0.00 84 1012.8
20260508192705 57 221 9.0 14.0 0.00 0.00 0.00 80 1012.8
20260508192202 57 232 11.0 16.0 0.00 0.00 0.00 78 1013.0
20260508191659 57 195 12.0 15.0 0.00 0.00 0.00 81 1012.8
20260508191155 57 219 11.0 16.0 0.00 0.00 0.00 79 1013.0
20260508190653 58 202 11.0 16.0 0.00 0.00 0.00 78 1013.1
20260508190149 59 210 10.0 13.0 0.00 0.00 0.00 77 1012.9
20260508185646 59 213 11.0 14.0 0.00 0.00 0.00 73 1013.0
20260508185144 59 204 11.0 15.0 0.00 0.00 0.00 71 1013.1
20260508184641 60 250 9.0 14.0 0.00 0.00 0.00 67 1013.1
20260508184138 60 211 9.0 15.0 0.00 0.00 0.00 68 1012.9
20260508183634 59 230 8.0 14.0 0.00 0.00 0.00 65 1013.2
20260508183130 59 218 8.0 14.0 0.00 0.00 0.00 68 1013.1
20260508182627 60 236 9.0 15.0 0.00 0.00 0.00 66 1013.2
20260508182124 59 229 9.0 11.0 0.00 0.00 0.00 68 1013.4
20260508181619 59 215 7.0 8.0 0.00 0.00 0.00 70 1013.3
20260508181117 58 240 6.0 11.0 0.00 0.00 0.00 69 1013.6
20260508180613 58 239 8.0 13.0 0.00 0.00 0.00 71 1013.5
20260508180110 58 225 6.0 10.0 0.00 0.00 0.00 71 1013.3
20260508175606 57 222 6.0 9.0 0.00 0.00 0.00 75 1013.5
20260508175104 57 243 8.0 10.0 0.00 0.00 0.00 72 1013.5
20260508174601 57 215 9.0 11.0 0.00 0.00 0.00 73 1013.6
20260508174058 58 244 8.0 10.0 0.00 0.00 0.00 74 1014.1
20260508173555 58 248 6.0 8.0 0.00 0.00 0.00 72 1013.6
20260508173050 58 203 9.0 11.0 0.00 0.00 0.00 71 1013.7
20260508172548 58 211 11.0 11.0 0.00 0.00 0.00 73 1013.9
20260508172044 58 212 8.0 10.0 0.00 0.00 0.00 74 1013.8
20260508171541 58 197 13.0 14.0 0.00 0.00 0.00 73 1014.0
20260508171037 59 234 9.0 15.0 0.00 0.00 0.00 75 1014.1
20260508170535 59 205 7.0 11.0 0.00 0.00 0.00 75 1014.0
20260508170032 58 224 8.0 10.0 0.00 0.00 0.00 74 1014.1
20260508165529 58 239 6.0 10.0 0.00 0.00 0.00 72 1014.3
20260508165026 58 245 8.0 10.0 0.00 0.00 0.00 73 1014.5
20260508164522 58 237 7.0 8.0 0.00 0.00 0.00 72 1014.3
20260508164019 58 259 6.0 10.0 0.00 0.00 0.00 74 1014.4
20260508163517 57 213 8.0 11.0 0.00 0.00 0.00 75 1014.5
20260508163013 58 211 6.0 10.0 0.00 0.00 0.00 77 1014.8
20260508162510 57 235 4.0 9.0 0.00 0.00 0.00 77 1014.9
20260508162008 57 243 7.0 9.0 0.00 0.00 0.00 77 1014.8
20260508161504 56 215 10.0 11.0 0.00 0.00 0.00 77 1014.9
20260508161001 55 207 9.0 10.0 0.00 0.00 0.00 79 1014.9
20260508160500 55 246 5.0 11.0 0.00 0.00 0.00 78 1015.0
20260508155956 55 240 7.0 9.0 0.00 0.00 0.00 78 1015.2
20260508155453 55 232 7.0 11.0 0.00 0.00 0.00 79 1015.0
20260508154950 55 229 4.0 8.0 0.00 0.00 0.00 79 1015.2
20260508154448 54 230 6.0 8.0 0.00 0.00 0.00 79 1015.0
20260508153944 55 200 8.0 9.0 0.00 0.00 0.00 79 1015.2
20260508153441 55 240 6.0 9.0 0.00 0.00 0.00 77 1014.9
20260508152937 54 237 6.0 9.0 0.00 0.00 0.00 78 1015.0
20260508152434 54 242 7.0 8.0 0.00 0.00 0.00 79 1014.9
20260508151930 54 244 5.0 9.0 0.00 0.00 0.00 78 1015.0
20260508151427 54 239 6.0 9.0 0.00 0.00 0.00 76 1015.1